This is the latest recevied weather packets stored in our database for station/object VY2CRA-4. If no packets are shown the sender has not sent any weather packets the latest 10 day(s).
| Time | Temp. | Humidity | Pressure | Rain* | Wind** | Luminosity | Snow |
|---|---|---|---|---|---|---|---|
| 1777154178 | 10° C | 58% | 1008.8 hPa | 0 mm | - | - | - |
| 1777152976 | 10° C | 58% | 1008.7 hPa | 0 mm | - | - | - |
| 1777151775 | 10° C | 58% | 1008.6 hPa | 0 mm | - | - | - |
| 1777150573 | 10° C | 58% | 1008.4 hPa | 0 mm | - | - | - |
| 1777149372 | 10.56° C | 57% | 1008.3 hPa | 0 mm | - | - | - |
| 1777148171 | 10.56° C | 57% | 1008.1 hPa | 0 mm | - | - | - |
| 1777146970 | 10.56° C | 56% | 1008 hPa | 0 mm | - | - | - |
| 1777144568 | 11.11° C | 56% | 1007.9 hPa | 0 mm | - | - | - |
| 1777140968 | 11.11° C | 54% | 1007.4 hPa | 0 mm | - | - | - |
| 1777138563 | 11.11° C | 53% | 1007.5 hPa | 0 mm | - | - | - |
| 1777136163 | 11.11° C | 53% | 1007.4 hPa | 0 mm | - | - | - |
| 1777134961 | 11.11° C | 53% | 1007.3 hPa | 0 mm | - | - | - |
| 1777133760 | 11.11° C | 52% | 1007.2 hPa | 0 mm | - | - | - |
| 1777132560 | 11.11° C | 52% | 1007.3 hPa | 0 mm | - | - | - |
| 1777131359 | 11.11° C | 49% | 1007.1 hPa | 0 mm | - | - | - |
| 1777130159 | 11.11° C | 48% | 1006.8 hPa | 0 mm | - | - | - |
| 1777128956 | 11.11° C | 47% | 1006.6 hPa | 0 mm | - | - | - |
| 1777127755 | 11.67° C | 46% | 1006.6 hPa | 0 mm | - | - | - |
| 1777126556 | 12.22° C | 44% | 1006.4 hPa | 0 mm | - | - | - |
| 1777125355 | 12.78° C | 42% | 1006.1 hPa | 0 mm | - | - | - |
| 1777124152 | 13.33° C | 39% | 1006 hPa | 0 mm | - | - | - |
| 1777122953 | 14.44° C | 37% | 1006.1 hPa | 0 mm | - | - | - |
| 1777121751 | 15° C | 35% | 1005.9 hPa | 0 mm | - | - | - |
| 1777120551 | 15.56° C | 35% | 1005.8 hPa | 0 mm | - | - | - |
* Rain since midnight (hover to see other rain measurements)
** Current wind speed in m/s (hover to see current wind gust speed)